This is the latest recevied weather packets stored in our database for station/object OZ0AJ-13. If no packets are shown the sender has not sent any weather packets the latest 10 day(s).
| Time | Temp. | Humidity | Pressure | Rain* | Wind** | Luminosity | Snow |
|---|---|---|---|---|---|---|---|
| 1777828833 | 12.22° C | 94% | 1008.5 hPa | 0.76 mm | - | - | - |
| 1777828229 | 12.22° C | 93% | 1008.3 hPa | 0.76 mm | - | - | - |
| 1777827625 | 12.78° C | 93% | 1008.4 hPa | 1.02 mm | - | - | - |
| 1777827021 | 12.78° C | 92% | 1008.4 hPa | 1.02 mm | - | - | - |
| 1777826417 | 12.78° C | 92% | 1008.6 hPa | 1.27 mm | - | - | - |
| 1777825834 | 12.78° C | 92% | 1008.5 hPa | 1.27 mm | - | - | - |
| 1777825230 | 12.78° C | 91% | 1008.7 hPa | 1.27 mm | - | - | - |
| 1777824626 | 13.33° C | 90% | 1008.9 hPa | 1.02 mm | - | - | - |
| 1777824022 | 13.33° C | 89% | 1009 hPa | 1.02 mm | - | - | - |
| 1777823418 | 13.33° C | 89% | 1009.2 hPa | 1.02 mm | - | - | - |
| 1777822834 | 13.33° C | 88% | 1009.3 hPa | 0.76 mm | - | - | - |
| 1777822230 | 13.33° C | 88% | 1009.5 hPa | 0.76 mm | - | - | - |
| 1777821626 | 13.33° C | 87% | 1009.5 hPa | 0.51 mm | - | - | - |
| 1777821022 | 13.33° C | 86% | 1009.4 hPa | 0.51 mm | - | - | - |
| 1777820418 | 13.89° C | 86% | 1009.7 hPa | 0.25 mm | - | - | - |
| 1777819834 | 13.89° C | 83% | 1009.7 hPa | 0 mm | - | - | - |
| 1777819230 | 14.44° C | 80% | 1009.9 hPa | 0 mm | - | - | - |
| 1777818626 | 15° C | 77% | 1009.9 hPa | 0 mm | - | - | - |
| 1777818021 | 15.56° C | 75% | 1009.7 hPa | 0 mm | - | - | - |
| 1777817418 | 15.56° C | 72% | 1009.8 hPa | 0 mm | - | - | - |
| 1777816834 | 15.56° C | 73% | 1009.8 hPa | 0 mm | - | - | - |
| 1777816229 | 16.11° C | 72% | 1010 hPa | 0 mm | - | - | - |
| 1777815625 | 16.67° C | 68% | 1010.4 hPa | 0 mm | - | - | - |
| 1777815021 | 17.22° C | 67% | 1010.3 hPa | 0 mm | - | - | - |
| 1777814417 | 17.22° C | 67% | 1010.4 hPa | 0 mm | - | - | - |
* Rain latest hour (hover to see other rain measurements)
** Current wind speed in m/s (hover to see current wind gust speed)